Location: Conflandey
(47.7287°N, 6.0456°E)
Time: 04:02:15
(UTC+00:00)

H-2A R/B - Pass Details

Date: 24 October 2021
Orbit: 577 x 653 km, 98.5° (Epoch: 05 December)

Event Time Altitude Azimuth Distance (km) Brightness Sun altitude
Rises 18:44:29 0° 13° (NNE) 2,813 5.4 -23.0°
Enters shadow 18:44:36 - 13° (NNE) 2,762 5.3 -23.1°
Exits shadow 18:51:04 77° 214° (SW) 612 1.9 -24.1°
Drops below altitude 10° 18:54:58 10° 198° (SSW) 1,933 4.7 -24.8°
Sets 18:57:08 0° 197° (SSW) 2,842 5.6 -25.1°
